CZ-4B DEB, 43660

Orbit data source: Space-Track

CZ-4B DEB, 43660 is space debris in SSO originally from a launch on Wed, 24 Oct 2018 UTC launched from the Taiyaun Space Center, China (TSC). Debris objects in space refer to the collection of defunct objects orbiting the Earth. Examples of debris include non-operational satellites, rocket bodies, and fragments generated from explosions, collisions, or faulty payload assembly.

Loading next visibility...
Identifier
43660, 2018-081D
Orbit
SSO
Country
Flag of CNCN / PRC
Related business
Manufacturer
SAST
Mission
Spacecraft
Bus & Motor
Unknown
Mass
Unknown
Launch date (UTC)
2018-10-24 (7 years ago)
Launch vehicle
Unknown
Launch site
Taiyaun Space Center, China (TSC)
Object type
Payload
Rocket body
Debris
Shape & HBR
Unknown shape, 0.1 m
Radar Cross Section
Small (<0.1 m²)

Expand to show TLE details & history
Last TLE update: 20 hours ago

TLE from 20 hours ago
0 CZ-4B DEB
1 43660U 18081D   25299.78290007  .00000200  00000-0  19611-3 0  9990
2 43660  99.1355 327.5613 0012308 270.4330  89.5419 13.90520535355476
Epoch: 2025-10-26T18:47Z
TLE epoch observation values (Epoch: 2025-10-26T18:47:22.566Z)
Latitude
0.00006°
Longitude
10.32312°
Altitude
929.607 km
Speed
7.387 km/s
True Right ascension
21h 50m 14s
True Declination
0° 00' 00"
Sunlit
Object was in daylight at epoch
Visualization orbit readout
Latitude
Unknown
Longitude
Unknown
Altitude
Unknown
Speed
Unknown
Apparent Right ascension
Unknown
Apparent Declination
Unknown
Sunlit
N/A
Visualization observer readout
Local Sidereal Time
09:48:08
Azimuth
Unknown
Elevation
Unknown
Doppler factor
Unknown
Orbital elements
Apogee altitude
933.013 km
Perigee altitude
915.038 km
Semi-major axis
7,302.163 km
Eccentricity
0.00123
Inclination
99.1355°
RAAN
327.5613°
Arg. of periapsis
270.433°
True anomaly
89.68294°
Mean anomaly
89.5419°
Eccentric anomaly
89.61242°
Mean motion
3.47829 °/min
Orbital period
103.5 mins
BSTAR
0.00019611
Loading maneuver chart data...
Computing Atmospheric mass density...
Loading historical data...
Loading historical data...
Loading historical data...
Loading historical data...
Loading historical data...
Loading historical data...
Loading historical data...

Documentation

Showing up to 5 results
|